QPF
0.00 0.00 0.00 0.00 0.00 0.00 0.00 0.00 0.00 0.00 0.00 0.00 0.00 0.00 0.00 0.00 0.00 0.00 0.00 0.00 0.00 0.00 0.00 0.00 0.00 0.00 0.00 0.00 0.00 0.00 0.00 0.00 0.00 0.00 0.00 0.00 0.00 0.00 0.00 0.00 0.00 0.00 0.00 0.00 0.00 0.01 0.01 0.00 0.00 0.00 0.00 0.00 0.00 0.00
0.00 0.00 0.00 0.00 0.00 0.00 0.00 0.00 0.00 0.00 0.00 0.00 0.00 0.00 0.00 0.00 0.00 0.00 0.00 0.00 0.00 0.00 0.00 0.00 0.00 0.00 0.00 0.00 0.00 0.00 0.00 0.00 0.00 0.00 0.00 0.00 0.00 0.00 0.00 0.00 0.00 0.00 0.00 0.01 0.00 0.03 0.01 0.00 0.00 0.00 0.00 0.00 0.00 0.00
0.00 0.00 0.00 0.00 0.00 0.00 0.00 0.00 0.00 0.00 0.00 0.00 0.00 0.00 0.00 0.00 0.00 0.00 0.00 0.00 0.00 0.00 0.00 0.00 0.00 0.00 0.00 0.00 0.00 0.00 0.00 0.00 0.00 0.00 0.00 0.00 0.00 0.00 0.00 0.00 0.00 0.00 0.00 0.00 0.00 0.00 0.00 0.00 0.00 0.00 0.00 0.00 0.00 0.00
0.00 0.00 0.00 0.00 0.00 0.00 0.00 0.00 0.00 0.00 0.00 0.00 0.00 0.00 0.00 0.00 0.00 0.00 0.00 0.00 0.00 0.00 0.00 0.00 0.00 0.00 0.00 0.00 0.00 0.00 0.00 0.00 0.00 0.00 0.00 0.00 0.00 0.00 0.00 0.00 0.01 0.00 0.00 0.00 0.00 0.00 0.00 0.00 0.00 0.00 0.00 0.00 0.00 0.00
0.00 0.00 0.00 0.00 0.00 0.00 0.00 0.00 0.00 0.00 0.00 0.00 0.00 0.00 0.00 0.00 0.00 0.00 0.00 0.00 0.00 0.00 0.00 0.00 0.00 0.00 0.00 0.00 0.00 0.00 0.00 0.00 0.00 0.00 0.00 0.00 0.00 0.00 0.00 0.00 0.00 0.00 0.00 0.01 0.00 0.00 0.00 0.00 0.00 0.00 0.00 0.00 0.00 0.00
0.00 0.00 0.00 0.00 0.00 0.00 0.00 0.00 0.00 0.00 0.00 0.00 0.00 0.00 0.00 0.00 0.00 0.00 0.00 0.00 0.00 0.00 0.00 0.00 0.00 0.00 0.00 0.00 0.00 0.00 0.00 0.00 0.00 0.00 0.00 0.00 0.00 0.00 0.00 0.00 0.00 0.00 0.00 0.00 0.00 0.00 0.00 0.00 0.00 0.00 0.00 0.00 0.00 0.00
0.00 0.00 0.00 0.00 0.00 0.00 0.00 0.00 0.00 0.00 0.00 0.00 0.00 0.00 0.00 0.00 0.00 0.00 0.00 0.00 0.00 0.00 0.00 0.00 0.00 0.00 0.00 0.00 0.00 0.00 0.00 0.00 0.00 0.00 0.00 0.01 0.03 0.00 0.00 0.00 0.00 0.00 0.00 0.00 0.00 0.00 0.00 0.00 0.00 0.00 0.00 0.00 0.00 0.00
0.00 0.00 0.00 0.00 0.00 0.00 0.00 0.00 0.00 0.00 0.00 0.00 0.00 0.00 0.00 0.00 0.00 0.00 0.00 0.00 0.00 0.00 0.00 0.00 0.00 0.00 0.00 0.00 0.00 0.00 0.00 0.00 0.00 0.00 0.03 0.05 0.01 0.01 0.00 0.00 0.00 0.00 0.00 0.00 0.00 0.00 0.00 0.00 0.00 0.00 0.00 0.00 0.00 0.00
0.00 0.00 0.00 0.00 0.00 0.00 0.00 0.00 0.00 0.00 0.00 0.00 0.00 0.00 0.00 0.00 0.00 0.00 0.00 0.00 0.00 0.00 0.00 0.00 0.01 0.02 0.00 0.00 0.00 0.00 0.01 0.03 0.03 0.04 0.05 0.04 0.02 0.01 0.00 0.00 0.00 0.00 0.00 0.00 0.00 0.00 0.00 0.00 0.00 0.00 0.00 0.00 0.00 0.00
0.00 0.00 0.00 0.00 0.00 0.00 0.00 0.00 0.00 0.00 0.00 0.00 0.00 0.00 0.00 0.00 0.00 0.00 0.00 0.00 0.00 0.00 0.00 0.00 0.00 0.01 0.00 0.02 0.05 0.05 0.05 0.03 0.05 0.03 0.02 0.02 0.01 0.00 0.00 0.00 0.00 0.00 0.00 0.00 0.00 0.02 0.02 0.01 0.00 0.00 0.00 0.00 0.00 0.00
0.00 0.00 0.00 0.00 0.00 0.00 0.00 0.00 0.00 0.00 0.00 0.00 0.00 0.00 0.00 0.00 0.00 0.00 0.00 0.00 0.00 0.00 0.00 0.00 0.00 0.02 0.01 0.04 0.07 0.04 0.05 0.05 0.04 0.02 0.01 0.01 0.00 0.00 0.00 0.00 0.00 0.00 0.00 0.00 0.00 0.01 0.01 0.01 0.00 0.00 0.00 0.00 0.00 0.00
0.00 0.00 0.00 0.00 0.00 0.00 0.00 0.00 0.00 0.00 0.00 0.00 0.00 0.00 0.00 0.00 0.00 0.01 0.00 0.00 0.00 0.00 0.00 0.00 0.00 0.00 0.01 0.02 0.06 0.02 0.04 0.03 0.02 0.00 0.00 0.00 0.00 0.00 0.00 0.00 0.00 0.00 0.00 0.00 0.00 0.01 0.01 0.00 0.00 0.00 0.00 0.00 0.00 0.00
0.00 0.00 0.00 0.00 0.00 0.00 0.00 0.00 0.00 0.00 0.00 0.00 0.00 0.00 0.00 0.00 0.00 0.00 0.00 0.00 0.02 0.00 0.00 0.00 0.05 0.06 0.05 0.05 0.07 0.05 0.03 0.01 0.00 0.00 0.01 0.00 0.00 0.00 0.00 0.00 0.00 0.00 0.00 0.00 0.00 0.00 0.00 0.00 0.00 0.00 0.01 0.00 0.00 0.01
0.00 0.00 0.00 0.00 0.00 0.00 0.00 0.00 0.00 0.00 0.00 0.00 0.00 0.00 0.00 0.00 0.00 0.00 0.01 0.02 0.00 0.00 0.00 0.03 0.14 0.13 0.08 0.07 0.08 0.04 0.02 0.01 0.00 0.00 0.00 0.02 0.04 0.01 0.00 0.00 0.00 0.00 0.00 0.00 0.00 0.00 0.00 0.01 0.02 0.03 0.02 0.02 0.03 0.04
0.00 0.00 0.00 0.00 0.00 0.00 0.00 0.00 0.00 0.00 0.00 0.00 0.00 0.00 0.00 0.00 0.00 0.00 0.00 0.00 0.00 0.00 0.01 0.11 0.14 0.09 0.07 0.08 0.04 0.01 0.01 0.00 0.00 0.00 0.01 0.09 0.09 0.06 0.01 0.00 0.00 0.00 0.00 0.00 0.00 0.00 0.00 0.00 0.00 0.00 0.00 0.01 0.02 0.03
0.00 0.00 0.00 0.00 0.00 0.00 0.00 0.00 0.00 0.00 0.00 0.00 0.00 0.00 0.00 0.00 0.00 0.00 0.00 0.00 0.00 0.00 0.03 0.07 0.08 0.11 0.09 0.02 0.01 0.00 0.00 0.00 0.00 0.00 0.03 0.09 0.09 0.03 0.00 0.00 0.00 0.00 0.00 0.00 0.00 0.00 0.00 0.00 0.00 0.00 0.00 0.00 0.01 0.01
0.00 0.00 0.00 0.00 0.00 0.00 0.00 0.00 0.00 0.00 0.00 0.00 0.00 0.00 0.00 0.00 0.00 0.00 0.00 0.00 0.00 0.03 0.10 0.16 0.08 0.07 0.01 0.00 0.00 0.00 0.00 0.00 0.00 0.02 0.05 0.02 0.01 0.00 0.00 0.00 0.00 0.00 0.00 0.00 0.00 0.00 0.00 0.00 0.00 0.00 0.00 0.00 0.00 0.00
0.00 0.00 0.00 0.00 0.00 0.00 0.00 0.00 0.00 0.00 0.00 0.00 0.00 0.00 0.00 0.00 0.00 0.00 0.00 0.00 0.02 0.04 0.09 0.13 0.04 0.00 0.00 0.00 0.00 0.00 0.00 0.00 0.00 0.01 0.02 0.01 0.01 0.00 0.00 0.00 0.00 0.00 0.00 0.00 0.00 0.00 0.00 0.03 0.04 0.03 0.01 0.00 0.00 0.00
0.00 0.00 0.00 0.00 0.00 0.00 0.00 0.00 0.00 0.00 0.00 0.00 0.00 0.00 0.00 0.00 0.00 0.00 0.00 0.00 0.01 0.01 0.03 0.01 0.00 0.00 0.00 0.00 0.00 0.00 0.00 0.00 0.00 0.00 0.00 0.00 0.00 0.00 0.00 0.00 0.00 0.00 0.00 0.00 0.00 0.00 0.01 0.03 0.04 0.00 0.00 0.01 0.02 0.05
0.00 0.00 0.00 0.00 0.00 0.00 0.00 0.00 0.00 0.00 0.00 0.00 0.00 0.00 0.00 0.00 0.00 0.00 0.02 0.09 0.08 0.09 0.05 0.01 0.00 0.00 0.00 0.00 0.00 0.00 0.00 0.00 0.00 0.00 0.00 0.00 0.00 0.00 0.00 0.00 0.00 0.00 0.00 0.00 0.00 0.00 0.00 0.03 0.04 0.01 0.00 0.00 0.02 0.05
0.00 0.00 0.00 0.00 0.00 0.00 0.00 0.00 0.00 0.00 0.00 0.00 0.00 0.00 0.00 0.01 0.02 0.04 0.11 0.11 0.15 0.13 0.05 0.01 0.00 0.00 0.00 0.00 0.01 0.00 0.00 0.00 0.00 0.00 0.00 0.00 0.00 0.00 0.00 0.00 0.00 0.00 0.00 0.00 0.00 0.00 0.00 0.02 0.02 0.01 0.00 0.01 0.02 0.04
0.00 0.00 0.00 0.00 0.01 0.01 0.00 0.00 0.00 0.00 0.00 0.00 0.00 0.00 0.01 0.11 0.12 0.09 0.12 0.17 0.08 0.05 0.03 0.02 0.06 0.07 0.04 0.05 0.01 0.00 0.00 0.00 0.00 0.00 0.00 0.00 0.00 0.00 0.00 0.00 0.00 0.00 0.00 0.00 0.00 0.01 0.03 0.04 0.04 0.02 0.00 0.00 0.00 0.00
0.00 0.00 0.00 0.00 0.01 0.02 0.00 0.00 0.00 0.00 0.00 0.01 0.05 0.07 0.05 0.07 0.14 0.10 0.20 0.09 0.02 0.01 0.02 0.04 0.02 0.04 0.06 0.03 0.00 0.00 0.00 0.00 0.00 0.00 0.00 0.00 0.00 0.00 0.00 0.00 0.00 0.00 0.00 0.00 0.00 0.01 0.01 0.03 0.02 0.02 0.00 0.00 0.00 0.00
0.00 0.00 0.00 0.02 0.02 0.00 0.00 0.01 0.01 0.00 0.00 0.03 0.12 0.15 0.17 0.16 0.15 0.16 0.08 0.00 0.00 0.00 0.00 0.00 0.00 0.00 0.00 0.00 0.00 0.00 0.00 0.00 0.00 0.00 0.00 0.00 0.00 0.00 0.00 0.00 0.00 0.00 0.00 0.00 0.00 0.00 0.00 0.00 0.00 0.00 0.00 0.00 0.00 0.00
0.00 0.00 0.00 0.00 0.01 0.00 0.00 0.00 0.01 0.04 0.03 0.03 0.13 0.18 0.13 0.16 0.18 0.10 0.02 0.00 0.00 0.00 0.00 0.00 0.00 0.00 0.00 0.00 0.00 0.00 0.00 0.00 0.00 0.00 0.00 0.00 0.00 0.00 0.00 0.00 0.00 0.00 0.00 0.00 0.00 0.00 0.00 0.00 0.00 0.00 0.00 0.00 0.00 0.00
0.01 0.00 0.00 0.00 0.00 0.00 0.00 0.00 0.02 0.04 0.02 0.01 0.09 0.12 0.08 0.03 0.02 0.03 0.03 0.00 0.00 0.00 0.00 0.00 0.00 0.00 0.00 0.00 0.00 0.00 0.00 0.00 0.00 0.00 0.00 0.00 0.00 0.00 0.00 0.00 0.00 0.00 0.00 0.00 0.00 0.00 0.00 0.00 0.00 0.00 0.00 0.00 0.00 0.00
0.00 0.00 0.00 0.00 0.00 0.00 0.00 0.00 0.00 0.00 0.00 0.02 0.05 0.11 0.05 0.02 0.01 0.01 0.00 0.00 0.00 0.00 0.00 0.00 0.00 0.00 0.00 0.00 0.00 0.00 0.00 0.00 0.00 0.00 0.00 0.00 0.00 0.00 0.00 0.00 0.00 0.00 0.00 0.00 0.00 0.00 0.00 0.00 0.00 0.00 0.00 0.00 0.00 0.00
0.00 0.00 0.00 0.00 0.00 0.00 0.00 0.00 0.00 0.00 0.00 0.00 0.04 0.15 0.07 0.05 0.02 0.00 0.00 0.00 0.00 0.00 0.00 0.00 0.00 0.00 0.00 0.00 0.00 0.00 0.00 0.00 0.00 0.00 0.00 0.00 0.00 0.00 0.00 0.00 0.00 0.00 0.00 0.00 0.00 0.00 0.00 0.00 0.00 0.00 0.00 0.00 0.00 0.00
0.00 0.00 0.00 0.00 0.00 0.00 0.00 0.00 0.00 0.00 0.00 0.00 0.08 0.14 0.03 0.01 0.00 0.00 0.00 0.00 0.00 0.00 0.00 0.00 0.00 0.00 0.00 0.00 0.00 0.00 0.00 0.00 0.00 0.00 0.00 0.00 0.00 0.00 0.00 0.00 0.00 0.00 0.00 0.00 0.00 0.00 0.00 0.00 0.00 0.00 0.00 0.00 0.00 0.00
0.00 0.00 0.00 0.00 0.00 0.00 0.00 0.00 0.00 0.00 0.00 0.00 0.04 0.06 0.01 0.00 0.00 0.00 0.00 0.00 0.00 0.00 0.00 0.00 0.00 0.00 0.00 0.00 0.00 0.00 0.00 0.00 0.00 0.00 0.00 0.00 0.00 0.00 0.00 0.00 0.00 0.00 0.00 0.00 0.00 0.00 0.00 0.00 0.00 0.00 0.00 0.00 0.00 0.00
0.00 0.00 0.00 0.00 0.00 0.00 0.00 0.00 0.00 0.00 0.00 0.00 0.01 0.03 0.00 0.00 0.00 0.00 0.00 0.00 0.00 0.00 0.00 0.00 0.00 0.00 0.00 0.00 0.00 0.00 0.00 0.00 0.00 0.00 0.00 0.00 0.00 0.00 0.00 0.00 0.00 0.00 0.00 0.00 0.00 0.00 0.00 0.00 0.00 0.00 0.00 0.00 0.00 0.00
0.00 0.00 0.00 0.00 0.00 0.00 0.00 0.00 0.00 0.05 0.02 0.09 0.02 0.00 0.00 0.00 0.00 0.00 0.00 0.00 0.00 0.00 0.00 0.00 0.00 0.00 0.00 0.00 0.00 0.00 0.00 0.00 0.00 0.00 0.00 0.00 0.00 0.00 0.00 0.00 0.00 0.00 0.00 0.00 0.00 0.00 0.00 0.00 0.00 0.00 0.00 0.00 0.00 0.00
0.00 0.00 0.00 0.00 0.00 0.00 0.00 0.02 0.05 0.14 0.08 0.05 0.00 0.00 0.01 0.00 0.01 0.01 0.00 0.00 0.00 0.00 0.00 0.00 0.00 0.00 0.00 0.00 0.00 0.00 0.00 0.00 0.00 0.00 0.00 0.00 0.00 0.00 0.00 0.00 0.00 0.00 0.00 0.00 0.00 0.00 0.00 0.00 0.00 0.00 0.00 0.00 0.00 0.00
MSLP
1019.31 1019.20 1019.08 1019.05 1018.94 1018.73 1018.67 1018.40 1018.40 1018.45 1018.35 1017.98 1017.48 1017.17 1016.90 1016.52 1016.07 1015.68 1013.09 1012.70 1012.30 1010.47 1009.26 1009.62 1009.76 1009.88 1009.92 1009.84 1009.40 1010.73 1010.75 1010.75 1010.66 1010.79 1011.17 1012.41 1012.98 1012.87 1013.07 1012.73 1011.99 1011.38 1011.38 1011.35 1011.25 1011.01 1010.91 1011.18 1011.46 1011.53 1012.13 1012.17 1012.66 1013.10
1019.26 1019.09 1018.92 1018.83 1018.64 1018.46 1018.57 1018.38 1018.12 1018.02 1018.12 1017.91 1017.78 1017.29 1016.93 1016.74 1016.22 1015.96 1013.73 1012.55 1012.65 1011.80 1010.14 1010.18 1009.91 1010.09 1010.28 1010.36 1010.19 1010.70 1010.86 1010.84 1010.71 1010.93 1011.69 1012.28 1013.11 1012.73 1013.16 1012.81 1012.66 1012.65 1012.18 1012.49 1012.17 1012.35 1012.65 1012.74 1012.39 1012.72 1012.80 1013.31 1013.88 1014.29
1018.77 1018.50 1018.43 1018.34 1018.32 1018.05 1017.88 1018.19 1018.27 1018.09 1017.91 1017.87 1017.86 1017.49 1017.03 1016.90 1016.45 1016.27 1014.46 1013.01 1012.32 1011.38 1009.93 1009.77 1009.76 1010.15 1010.47 1010.52 1010.43 1010.68 1010.91 1011.28 1011.52 1012.12 1011.69 1011.52 1012.41 1012.54 1012.73 1012.48 1012.55 1012.32 1012.76 1013.00 1012.93 1012.77 1012.73 1013.07 1013.33 1013.43 1013.61 1013.88 1014.50 1014.78
1018.46 1018.18 1017.87 1017.74 1017.77 1017.72 1017.27 1017.34 1017.82 1017.80 1017.81 1017.63 1017.79 1017.53 1017.20 1017.05 1016.68 1016.53 1014.77 1013.05 1012.79 1011.53 1009.89 1009.33 1009.69 1009.93 1010.35 1010.33 1010.79 1010.86 1011.11 1011.85 1011.95 1012.10 1011.85 1012.02 1012.50 1012.81 1012.71 1012.83 1012.80 1012.59 1012.58 1012.92 1013.09 1013.19 1013.16 1013.16 1013.31 1013.90 1014.37 1014.60 1015.02 1015.32
1018.03 1017.95 1017.82 1017.66 1017.80 1017.72 1017.47 1017.22 1017.62 1017.58 1017.58 1017.34 1017.70 1017.54 1017.25 1017.12 1016.79 1016.19 1014.83 1013.15 1012.96 1012.76 1010.87 1009.30 1009.65 1009.80 1010.45 1010.55 1010.91 1011.30 1011.43 1011.78 1011.79 1012.17 1012.33 1012.70 1013.23 1013.47 1013.24 1013.20 1012.89 1012.46 1012.85 1013.00 1013.17 1013.00 1012.91 1013.02 1013.04 1013.59 1014.31 1014.96 1015.40 1015.82
1017.41 1017.32 1017.41 1017.47 1017.60 1017.40 1017.36 1017.20 1017.36 1017.64 1017.43 1017.29 1017.49 1017.43 1017.34 1017.17 1016.78 1015.66 1013.64 1013.16 1012.92 1012.93 1011.97 1009.57 1009.70 1010.08 1010.20 1010.69 1011.08 1011.29 1011.47 1011.98 1012.64 1012.80 1013.16 1013.36 1013.46 1014.34 1013.76 1013.39 1013.13 1012.70 1012.92 1013.15 1013.41 1013.46 1013.25 1012.72 1012.69 1012.82 1013.70 1014.60 1015.33 1015.82
1016.78 1016.61 1016.61 1016.74 1017.09 1017.10 1017.16 1017.28 1017.23 1017.46 1017.33 1017.35 1017.33 1017.36 1017.32 1017.17 1016.46 1015.73 1015.56 1015.25 1014.90 1014.02 1012.25 1009.92 1008.91 1010.02 1010.52 1010.84 1010.93 1011.12 1011.60 1012.31 1012.89 1013.20 1013.52 1013.38 1014.78 1015.07 1014.90 1014.22 1013.00 1012.78 1012.68 1013.05 1013.21 1013.20 1013.32 1012.92 1012.61 1013.11 1013.67 1014.24 1015.12 1015.64
1016.33 1016.17 1016.29 1016.55 1016.26 1016.46 1016.91 1017.32 1017.33 1017.35 1017.28 1017.36 1017.25 1017.25 1017.14 1016.94 1016.52 1015.47 1014.73 1015.39 1015.25 1013.79 1011.93 1010.20 1009.08 1009.77 1010.28 1010.24 1010.70 1011.08 1011.75 1012.33 1012.76 1013.23 1013.63 1014.31 1015.20 1015.17 1014.78 1013.76 1013.19 1012.73 1012.46 1012.71 1013.14 1013.18 1013.45 1013.32 1012.88 1013.23 1013.65 1014.23 1014.79 1015.47
1016.29 1016.28 1016.10 1016.69 1016.57 1016.38 1016.93 1017.28 1017.37 1017.26 1017.30 1017.27 1017.19 1017.05 1016.70 1016.13 1014.27 1014.73 1015.13 1015.14 1014.54 1014.21 1012.16 1009.85 1009.03 1009.40 1009.99 1010.16 1011.16 1011.35 1011.95 1012.46 1012.83 1013.23 1013.67 1014.40 1014.45 1014.45 1013.60 1013.16 1012.47 1012.14 1012.22 1012.34 1012.68 1013.03 1013.52 1014.46 1013.78 1013.23 1013.73 1014.22 1014.63 1014.96
1016.19 1016.29 1015.77 1016.05 1016.39 1016.60 1017.05 1017.23 1017.25 1017.23 1017.29 1017.17 1017.04 1016.09 1014.44 1014.40 1014.67 1014.94 1015.09 1014.38 1013.87 1012.97 1011.98 1010.09 1008.66 1009.16 1009.51 1010.02 1010.88 1011.63 1012.38 1012.41 1012.55 1012.69 1013.35 1013.75 1013.52 1013.10 1012.76 1012.32 1012.05 1012.03 1012.46 1012.67 1012.82 1013.05 1013.85 1014.47 1014.20 1013.88 1013.49 1013.84 1014.24 1014.50
1016.38 1016.70 1016.57 1016.49 1016.82 1016.87 1017.17 1017.33 1017.48 1017.46 1017.48 1016.72 1015.33 1013.75 1014.35 1014.81 1014.36 1013.78 1013.97 1013.49 1012.75 1011.72 1009.92 1008.94 1008.42 1008.48 1009.03 1009.62 1011.05 1011.73 1011.84 1011.81 1012.02 1012.33 1012.75 1013.20 1012.89 1011.63 1011.41 1011.46 1011.70 1011.78 1012.08 1012.75 1013.11 1013.29 1013.65 1014.05 1014.98 1014.68 1014.16 1014.10 1014.16 1014.01
1017.40 1017.01 1017.11 1017.09 1017.45 1017.03 1017.15 1017.29 1017.44 1017.25 1015.72 1016.36 1015.70 1013.97 1013.68 1013.54 1013.11 1013.42 1012.85 1012.23 1011.65 1009.84 1008.22 1007.83 1008.09 1008.62 1009.12 1009.82 1011.05 1011.23 1011.41 1011.67 1011.48 1012.05 1012.53 1012.69 1011.97 1011.46 1011.09 1011.33 1011.51 1011.62 1012.07 1012.47 1012.92 1013.31 1014.02 1014.24 1013.87 1013.75 1013.55 1013.28 1013.33 1013.44
1017.32 1017.19 1017.18 1017.26 1017.35 1017.11 1017.07 1017.15 1017.18 1016.95 1016.32 1014.83 1014.76 1013.17 1012.46 1012.82 1012.58 1011.75 1010.76 1010.20 1009.28 1008.32 1007.64 1007.95 1008.52 1009.63 1010.31 1010.68 1011.64 1011.78 1011.73 1011.93 1012.21 1011.94 1012.34 1012.15 1010.94 1011.18 1010.98 1011.09 1011.16 1011.64 1012.02 1012.45 1012.64 1012.90 1012.82 1013.26 1013.70 1013.63 1013.65 1013.73 1013.76 1013.94
1017.51 1017.05 1017.16 1017.19 1017.21 1016.92 1016.86 1017.00 1017.18 1017.09 1016.49 1013.76 1012.59 1012.60 1011.56 1010.69 1009.81 1008.39 1008.02 1007.66 1007.18 1007.05 1007.76 1008.42 1009.08 1010.28 1011.61 1012.40 1012.18 1012.55 1012.96 1012.93 1012.74 1012.07 1011.94 1011.64 1011.66 1012.46 1011.12 1011.42 1011.41 1011.61 1012.04 1012.32 1012.93 1012.87 1013.57 1013.53 1013.48 1013.65 1013.59 1013.54 1013.70 1013.90
1017.42 1017.05 1016.86 1017.01 1016.89 1016.59 1016.55 1016.85 1017.20 1016.79 1014.83 1012.63 1011.31 1010.59 1009.30 1008.34 1007.08 1006.67 1006.52 1006.67 1006.78 1006.97 1007.15 1008.55 1009.59 1010.50 1011.74 1012.35 1012.82 1013.43 1013.75 1013.50 1012.69 1011.66 1011.52 1012.25 1012.33 1012.31 1012.09 1011.91 1011.97 1012.02 1012.39 1012.81 1013.28 1013.37 1013.26 1013.14 1013.36 1013.53 1013.48 1013.39 1013.24 1013.28
1017.27 1016.98 1016.77 1016.92 1016.86 1016.56 1016.50 1016.90 1016.69 1015.53 1013.46 1011.94 1010.52 1008.99 1007.72 1006.83 1005.76 1005.17 1005.41 1005.20 1005.71 1006.86 1007.05 1008.31 1008.98 1010.45 1011.60 1012.57 1013.65 1014.34 1014.16 1013.07 1011.67 1011.94 1012.09 1012.40 1012.44 1012.41 1012.30 1012.16 1012.54 1012.74 1012.80 1012.84 1012.86 1013.34 1013.52 1013.57 1013.60 1013.59 1013.44 1013.26 1013.27 1013.25
1017.02 1016.27 1016.83 1017.03 1017.06 1016.89 1016.79 1016.47 1014.66 1013.58 1011.85 1010.21 1008.53 1007.72 1007.14 1006.46 1005.98 1005.33 1005.12 1004.94 1004.91 1006.13 1007.40 1008.55 1009.50 1010.59 1012.49 1013.40 1013.73 1013.88 1012.89 1011.40 1011.33 1012.13 1012.09 1012.15 1012.37 1012.46 1012.34 1012.68 1012.83 1013.03 1013.28 1013.33 1013.51 1013.79 1013.79 1013.75 1013.61 1013.64 1013.53 1013.57 1013.26 1013.23
1016.47 1016.58 1016.84 1017.14 1017.17 1015.95 1015.28 1015.42 1013.16 1011.45 1010.13 1008.93 1007.93 1006.92 1006.24 1005.81 1005.52 1005.29 1005.12 1005.25 1005.98 1006.76 1007.75 1008.42 1009.40 1010.58 1012.11 1012.88 1012.52 1011.92 1011.41 1011.05 1011.05 1011.93 1011.87 1012.27 1012.48 1012.72 1012.83 1013.00 1013.14 1013.27 1013.52 1013.73 1013.76 1013.61 1014.09 1014.17 1014.32 1014.40 1014.41 1014.30 1014.22 1014.03
1016.94 1016.84 1016.96 1017.21 1017.13 1016.41 1013.67 1012.88 1012.35 1010.36 1008.49 1007.49 1006.70 1006.07 1005.72 1005.54 1005.47 1005.62 1005.72 1006.29 1006.74 1007.29 1007.92 1008.53 1009.63 1010.41 1011.13 1011.55 1011.04 1010.38 1010.38 1010.42 1010.71 1010.85 1011.64 1012.27 1012.61 1012.93 1013.05 1012.81 1012.80 1012.87 1012.91 1013.26 1013.33 1013.40 1013.96 1014.86 1015.23 1015.38 1015.67 1015.25 1014.40 1014.14
1016.59 1016.53 1016.68 1016.93 1017.14 1015.26 1012.96 1011.40 1010.89 1009.79 1008.05 1006.72 1006.06 1005.64 1005.34 1005.16 1005.24 1006.17 1006.45 1007.40 1007.90 1008.09 1008.48 1008.68 1008.79 1009.64 1009.48 1009.51 1009.94 1010.15 1009.80 1009.72 1009.78 1010.46 1011.06 1011.45 1011.93 1012.58 1012.83 1012.74 1012.63 1012.61 1012.35 1012.95 1013.79 1014.15 1014.27 1015.40 1015.91 1015.88 1016.14 1015.84 1015.31 1014.52
1015.97 1015.46 1016.14 1016.13 1016.08 1014.85 1012.68 1010.27 1009.13 1008.17 1007.29 1006.47 1005.82 1005.30 1005.08 1005.94 1006.47 1008.12 1008.52 1007.72 1008.43 1008.38 1008.10 1008.24 1008.59 1008.88 1009.04 1009.49 1010.08 1010.28 1010.58 1010.25 1010.20 1010.48 1010.77 1011.53 1011.55 1011.84 1012.00 1011.92 1012.09 1012.42 1012.86 1013.55 1014.23 1014.97 1015.06 1015.96 1016.03 1016.20 1016.28 1015.88 1015.49 1015.20
1015.34 1015.43 1014.91 1015.28 1014.17 1012.96 1011.56 1010.01 1008.94 1007.96 1007.55 1006.43 1005.79 1005.35 1005.18 1006.45 1007.77 1008.04 1008.00 1008.21 1007.98 1008.18 1007.89 1008.37 1009.03 1009.43 1009.65 1009.95 1009.91 1009.95 1010.61 1010.77 1011.14 1011.27 1011.41 1011.49 1011.22 1011.57 1011.97 1011.96 1012.29 1012.87 1013.64 1014.55 1015.08 1015.34 1015.72 1015.96 1015.74 1015.39 1015.07 1015.03 1015.02 1014.53
1015.53 1015.12 1014.15 1013.10 1012.87 1011.64 1010.61 1009.18 1008.37 1007.63 1006.88 1005.59 1005.30 1005.61 1005.97 1006.92 1007.53 1007.52 1007.49 1007.38 1007.48 1007.62 1008.38 1008.88 1009.17 1009.68 1010.08 1010.15 1010.35 1010.68 1010.82 1010.74 1010.76 1011.03 1011.22 1011.43 1011.90 1011.99 1011.93 1012.18 1012.49 1013.07 1013.90 1014.48 1014.68 1014.88 1015.20 1015.51 1015.60 1015.70 1015.34 1014.99 1014.76 1014.68
1015.45 1014.28 1012.56 1011.66 1011.38 1010.49 1008.81 1007.96 1007.57 1006.83 1005.99 1005.73 1005.77 1005.83 1006.42 1007.27 1006.71 1006.43 1006.85 1007.11 1007.47 1007.96 1008.64 1009.29 1009.22 1009.55 1010.06 1010.11 1009.85 1010.20 1010.64 1010.44 1010.72 1011.13 1011.29 1011.31 1011.66 1012.20 1012.06 1012.34 1012.50 1012.85 1013.34 1014.02 1014.21 1014.55 1014.95 1015.08 1014.96 1014.82 1014.64 1015.17 1014.47 1015.03
1014.51 1013.43 1012.29 1011.37 1010.19 1009.41 1007.91 1006.85 1006.17 1005.93 1005.23 1005.41 1005.65 1006.25 1006.67 1006.81 1006.54 1006.43 1006.54 1007.13 1007.54 1007.98 1008.41 1008.64 1008.90 1009.00 1008.73 1008.71 1009.17 1009.97 1010.63 1010.11 1010.20 1010.75 1011.17 1011.33 1011.77 1012.02 1012.17 1012.54 1012.78 1012.88 1013.07 1013.92 1013.97 1014.17 1014.38 1014.63 1014.40 1014.51 1014.44 1014.51 1014.52 1014.85
1013.07 1011.15 1010.53 1008.61 1007.71 1007.19 1006.05 1005.82 1005.51 1005.52 1005.19 1005.28 1005.32 1006.05 1006.44 1006.75 1006.69 1006.01 1005.96 1006.37 1007.05 1007.63 1007.93 1007.88 1008.24 1007.82 1008.16 1008.11 1008.84 1009.58 1010.12 1010.12 1010.60 1010.70 1011.35 1011.34 1011.30 1011.32 1011.71 1012.16 1012.46 1012.95 1013.12 1013.35 1013.61 1013.93 1014.13 1014.28 1014.37 1014.52 1014.72 1014.66 1014.93 1014.68
1011.26 1009.18 1008.08 1007.63 1007.02 1006.53 1005.43 1004.41 1004.58 1004.82 1004.49 1004.54 1004.83 1005.57 1006.05 1005.69 1005.50 1005.59 1005.30 1005.86 1006.58 1007.14 1007.29 1006.90 1007.24 1007.05 1007.40 1008.27 1008.90 1009.62 1010.06 1010.42 1010.58 1010.85 1011.48 1011.58 1011.56 1011.65 1011.74 1011.99 1012.50 1013.20 1013.32 1013.46 1013.61 1013.90 1014.11 1014.26 1014.26 1014.30 1014.34 1014.46 1014.40 1014.47
1008.97 1007.50 1006.48 1005.81 1005.45 1005.13 1004.71 1004.22 1003.84 1003.78 1003.50 1003.59 1004.25 1005.46 1005.91 1004.90 1004.74 1004.80 1004.64 1005.16 1005.53 1005.88 1006.16 1006.34 1006.58 1007.01 1007.59 1008.58 1009.23 1009.82 1010.15 1010.58 1011.30 1011.41 1011.73 1011.90 1012.11 1012.15 1012.57 1012.85 1013.73 1014.15 1014.28 1014.56 1014.52 1014.03 1014.08 1014.14 1014.23 1014.36 1014.53 1014.67 1014.63 1014.61
1007.54 1006.47 1005.73 1005.08 1004.51 1003.84 1003.75 1003.40 1002.98 1002.56 1003.10 1003.49 1004.31 1005.47 1005.69 1004.79 1004.32 1004.30 1004.84 1005.11 1005.55 1005.77 1006.08 1006.52 1007.00 1007.48 1008.22 1008.90 1009.41 1009.80 1010.22 1010.45 1010.79 1011.22 1011.31 1011.34 1011.72 1012.16 1012.58 1013.16 1013.73 1013.80 1013.93 1014.57 1015.10 1015.12 1015.17 1015.08 1014.98 1014.84 1014.53 1014.64 1014.64 1014.90
1005.87 1005.22 1004.66 1004.20 1003.93 1003.46 1003.02 1002.64 1002.02 1002.17 1002.77 1003.09 1004.12 1004.84 1004.68 1004.16 1003.87 1004.38 1004.83 1005.17 1005.51 1005.82 1006.06 1006.40 1007.00 1007.46 1007.98 1008.51 1008.96 1009.43 1009.71 1009.86 1010.26 1010.32 1010.43 1010.58 1010.83 1011.43 1012.15 1012.55 1012.84 1012.98 1013.35 1013.79 1014.22 1014.83 1015.23 1015.17 1015.14 1015.07 1014.85 1014.72 1014.63 1014.65
1004.25 1003.85 1003.70 1003.49 1003.05 1002.80 1002.31 1002.09 1001.84 1002.21 1002.87 1003.21 1003.81 1004.34 1004.23 1004.28 1004.17 1004.45 1004.69 1005.03 1005.35 1005.64 1005.96 1006.41 1006.84 1007.10 1007.46 1007.82 1008.28 1009.01 1009.21 1009.48 1009.73 1010.19 1010.56 1010.46 1010.69 1011.45 1011.97 1012.37 1012.65 1012.80 1013.02 1013.06 1013.17 1013.42 1013.82 1014.10 1013.97 1014.06 1014.16 1014.31 1014.66 1014.82
1003.64 1003.32 1003.03 1002.77 1002.39 1002.00 1001.74 1001.96 1002.22 1003.21 1003.72 1004.14 1003.78 1004.10 1003.98 1004.34 1004.15 1004.09 1004.22 1004.69 1005.01 1005.17 1005.54 1005.94 1006.22 1006.56 1006.95 1007.17 1007.59 1008.05 1008.96 1008.64 1009.41 1010.29 1010.96 1011.09 1011.10 1011.72 1012.12 1012.37 1012.51 1012.58 1012.90 1013.06 1013.13 1013.04 1013.34 1013.67 1013.40 1013.69 1013.73 1014.27 1014.43 1014.65
1002.82 1002.71 1002.54 1002.33 1002.08 1001.71 1001.62 1001.87 1002.46 1003.27 1003.75 1004.10 1003.91 1003.81 1003.96 1003.95 1004.97 1005.83 1004.15 1004.31 1004.82 1004.93 1005.05 1005.31 1005.58 1006.31 1006.77 1007.16 1007.49 1007.60 1008.22 1008.66 1009.19 1010.05 1010.88 1011.36 1011.40 1011.80 1012.08 1012.19 1012.28 1012.44 1012.75 1012.84 1012.61 1012.63 1013.14 1013.23 1013.36 1013.41 1013.71 1013.85 1013.96 1014.20
Thickness
5619 5614 5609 5603 5598 5595 5590 5590 5585 5582 5580 5585 5593 5600 5603 5609 5615 5620 5638 5640 5638 5646 5656 5652 5650 5640 5640 5638 5634 5627 5625 5626 5626 5615 5613 5598 5592 5602 5594 5602 5607 5610 5605 5605 5614 5612 5608 5634 5630 5621 5624 5635 5635 5635
5612 5608 5603 5598 5594 5593 5586 5584 5584 5583 5582 5582 5589 5596 5600 5604 5611 5615 5629 5640 5640 5637 5647 5654 5655 5653 5647 5642 5636 5630 5624 5623 5627 5619 5613 5608 5592 5606 5596 5588 5609 5591 5605 5591 5605 5598 5609 5609 5616 5623 5626 5619 5617 5617
5609 5607 5602 5597 5592 5592 5590 5583 5581 5582 5581 5581 5584 5592 5597 5600 5607 5610 5623 5635 5638 5638 5649 5649 5645 5651 5652 5647 5648 5625 5626 5626 5620 5619 5617 5617 5597 5608 5591 5596 5597 5606 5606 5591 5593 5601 5602 5601 5602 5607 5610 5609 5608 5609
5604 5602 5600 5597 5593 5591 5592 5590 5584 5583 5582 5582 5581 5588 5594 5597 5603 5606 5618 5632 5631 5637 5639 5645 5657 5648 5652 5650 5642 5640 5632 5625 5622 5618 5614 5609 5598 5607 5596 5595 5588 5595 5597 5589 5587 5591 5593 5595 5594 5591 5590 5591 5592 5595
5599 5596 5592 5591 5587 5586 5586 5588 5583 5582 5581 5582 5579 5584 5590 5594 5599 5606 5615 5629 5631 5624 5628 5644 5650 5651 5647 5644 5637 5633 5629 5621 5618 5607 5604 5597 5599 5594 5596 5591 5583 5595 5583 5574 5572 5588 5586 5587 5592 5590 5582 5578 5577 5576
5598 5595 5591 5587 5583 5584 5581 5583 5582 5578 5579 5579 5577 5581 5585 5590 5596 5608 5622 5627 5629 5628 5624 5635 5648 5641 5643 5638 5631 5628 5625 5617 5608 5602 5596 5596 5599 5585 5579 5575 5583 5588 5585 5580 5572 5577 5578 5587 5590 5591 5582 5576 5572 5570
5598 5596 5594 5590 5585 5583 5580 5578 5579 5574 5575 5575 5573 5576 5582 5587 5594 5608 5608 5610 5614 5619 5622 5633 5641 5639 5636 5631 5629 5625 5622 5611 5603 5596 5589 5594 5576 5574 5562 5556 5578 5579 5579 5575 5574 5574 5567 5575 5575 5579 5576 5573 5568 5566
5596 5595 5592 5586 5588 5585 5578 5573 5573 5571 5572 5571 5572 5574 5580 5585 5592 5605 5610 5606 5607 5615 5627 5627 5634 5630 5635 5625 5616 5623 5610 5605 5599 5592 5588 5575 5568 5564 5552 5565 5570 5572 5572 5568 5564 5566 5561 5563 5567 5567 5567 5563 5559 5554
5591 5589 5589 5579 5579 5581 5573 5570 5568 5568 5568 5568 5569 5570 5580 5589 5608 5604 5602 5604 5607 5608 5613 5633 5626 5616 5633 5624 5614 5609 5605 5588 5596 5583 5578 5573 5566 5547 5561 5563 5568 5569 5565 5563 5561 5557 5550 5539 5550 5557 5555 5551 5548 5548
5588 5584 5586 5582 5577 5575 5568 5566 5565 5564 5564 5565 5567 5579 5594 5599 5597 5597 5601 5601 5603 5611 5617 5623 5642 5615 5629 5619 5605 5601 5594 5586 5579 5584 5581 5569 5563 5569 5569 5569 5568 5563 5557 5554 5549 5546 5540 5535 5536 5543 5547 5546 5543 5542
5581 5574 5574 5574 5569 5567 5563 5561 5559 5558 5558 5567 5579 5591 5591 5590 5597 5601 5593 5597 5603 5606 5629 5635 5638 5628 5633 5613 5597 5599 5590 5590 5576 5579 5573 5563 5557 5575 5575 5570 5565 5561 5555 5548 5544 5543 5539 5531 5520 5528 5534 5535 5535 5538
5565 5568 5566 5565 5560 5563 5561 5558 5555 5557 5572 5567 5572 5587 5592 5593 5597 5588 5591 5601 5601 5613 5637 5636 5634 5631 5623 5620 5598 5599 5589 5588 5577 5584 5569 5551 5565 5569 5570 5564 5560 5556 5549 5544 5541 5536 5529 5528 5530 5532 5534 5536 5537 5538
5562 5562 5562 5560 5559 5561 5560 5557 5556 5556 5560 5572 5577 5586 5592 5589 5576 5586 5593 5604 5613 5630 5639 5633 5622 5614 5607 5605 5591 5590 5583 5576 5580 5571 5557 5556 5574 5568 5565 5562 5558 5552 5546 5540 5537 5536 5537 5532 5527 5527 5525 5525 5524 5520
5557 5561 5558 5558 5557 5560 5559 5556 5554 5554 5559 5580 5586 5561 5588 5592 5602 5621 5624 5630 5640 5642 5626 5623 5617 5603 5588 5575 5583 5576 5570 5566 5555 5559 5554 5566 5560 5544 5555 5554 5551 5545 5539 5536 5528 5529 5519 5519 5519 5517 5516 5515 5513 5507
5555 5557 5558 5556 5557 5560 5559 5556 5553 5554 5571 5584 5594 5573 5601 5618 5633 5638 5642 5634 5638 5638 5630 5608 5604 5601 5588 5583 5576 5564 5551 5545 5556 5564 5568 5554 5550 5547 5547 5545 5539 5535 5529 5522 5517 5513 5513 5513 5508 5505 5505 5505 5506 5505
5551 5553 5554 5553 5554 5556 5556 5552 5553 5563 5577 5585 5594 5601 5618 5623 5633 5643 5639 5641 5643 5632 5634 5619 5609 5595 5585 5574 5559 5543 5539 5544 5568 5564 5557 5549 5547 5542 5538 5536 5527 5521 5517 5514 5512 5504 5500 5496 5494 5491 5491 5491 5490 5491
5548 5557 5549 5547 5547 5548 5549 5552 5567 5570 5581 5592 5603 5616 5619 5623 5625 5634 5640 5642 5650 5633 5612 5606 5594 5587 5573 5555 5551 5549 5551 5570 5570 5553 5551 5549 5542 5537 5533 5526 5520 5513 5506 5502 5496 5489 5485 5482 5479 5475 5472 5470 5471 5471
5548 5545 5543 5541 5540 5549 5557 5556 5572 5582 5586 5599 5602 5614 5624 5630 5631 5635 5641 5643 5633 5619 5612 5601 5602 5585 5562 5551 5555 5565 5569 5571 5566 5550 5551 5542 5536 5530 5524 5517 5511 5504 5497 5490 5485 5481 5472 5464 5459 5454 5451 5448 5447 5447
5538 5538 5537 5535 5536 5544 5565 5571 5573 5581 5599 5611 5618 5625 5629 5632 5638 5638 5637 5629 5625 5619 5612 5603 5583 5572 5566 5566 5571 5578 5574 5569 5559 5558 5547 5537 5530 5522 5516 5514 5509 5503 5497 5489 5482 5475 5465 5451 5442 5435 5428 5429 5431 5429
5536 5536 5534 5533 5532 5549 5564 5575 5583 5584 5595 5613 5622 5624 5629 5631 5635 5624 5625 5607 5598 5604 5597 5593 5593 5583 5586 5587 5582 5575 5576 5574 5568 5554 5545 5540 5532 5522 5514 5509 5504 5500 5498 5486 5473 5463 5457 5442 5430 5428 5422 5422 5423 5427
5536 5540 5534 5534 5536 5545 5561 5579 5588 5597 5605 5611 5622 5627 5628 5620 5608 5593 5594 5606 5599 5596 5598 5601 5596 5594 5592 5586 5577 5571 5561 5563 5557 5551 5544 5532 5531 5523 5516 5514 5507 5499 5489 5478 5466 5452 5448 5432 5432 5429 5424 5423 5425 5429
5540 5536 5543 5538 5547 5555 5565 5581 5587 5599 5600 5611 5618 5627 5627 5609 5597 5603 5607 5602 5603 5597 5605 5598 5589 5585 5581 5574 5574 5571 5560 5555 5547 5541 5533 5529 5530 5522 5514 5510 5502 5492 5480 5466 5456 5449 5442 5436 5435 5436 5437 5436 5432 5438
5533 5538 5547 5554 5552 5559 5565 5587 5587 5598 5598 5616 5622 5616 5616 5606 5601 5607 5605 5609 5608 5606 5597 5590 5587 5581 5573 5572 5568 5561 5556 5553 5548 5541 5536 5531 5522 5517 5514 5507 5499 5489 5476 5467 5461 5454 5446 5434 5433 5430 5430 5432 5432 5432
5532 5541 5554 5559 5561 5563 5587 5590 5598 5603 5611 5611 5612 5613 5605 5598 5611 5612 5603 5605 5602 5598 5590 5582 5583 5577 5571 5568 5566 5560 5553 5553 5546 5538 5534 5529 5521 5512 5511 5504 5499 5492 5483 5472 5465 5458 5450 5444 5438 5437 5436 5427 5431 5423
5532 5540 5548 5542 5569 5572 5585 5595 5603 5606 5613 5614 5611 5601 5603 5607 5603 5600 5598 5597 5597 5593 5588 5586 5581 5578 5577 5576 5569 5560 5552 5554 5548 5538 5532 5528 5519 5513 5508 5502 5496 5492 5486 5472 5466 5461 5455 5449 5447 5442 5438 5434 5430 5423
5535 5558 5551 5579 5588 5589 5601 5597 5603 5603 5611 5608 5613 5610 5608 5600 5590 5600 5603 5604 5598 5593 5589 5588 5581 5584 5578 5578 5568 5559 5553 5552 5544 5538 5529 5528 5524 5519 5511 5503 5498 5491 5487 5479 5472 5464 5458 5453 5449 5444 5438 5434 5424 5427
5545 5567 5583 5591 5593 5596 5605 5618 5617 5610 5612 5612 5615 5609 5604 5603 5602 5606 5616 5612 5601 5597 5595 5598 5590 5589 5583 5573 5566 5559 5553 5548 5542 5537 5529 5525 5522 5518 5513 5507 5500 5491 5487 5482 5476 5468 5461 5456 5451 5447 5443 5438 5436 5432
5571 5585 5587 5600 5602 5609 5605 5611 5614 5612 5621 5628 5622 5602 5598 5607 5607 5616 5619 5617 5613 5609 5604 5600 5596 5589 5581 5570 5563 5556 5551 5545 5535 5532 5527 5522 5518 5515 5508 5503 5492 5483 5482 5476 5471 5471 5466 5461 5455 5450 5443 5438 5435 5432
5579 5593 5600 5599 5607 5615 5614 5615 5620 5631 5631 5626 5613 5596 5596 5612 5622 5620 5617 5615 5612 5606 5598 5592 5587 5583 5574 5566 5559 5554 5547 5543 5535 5526 5522 5520 5516 5512 5508 5501 5494 5490 5487 5479 5466 5463 5460 5456 5452 5449 5447 5442 5438 5433
5593 5606 5604 5608 5607 5609 5621 5630 5634 5639 5636 5632 5622 5612 5614 5621 5626 5624 5616 5611 5604 5599 5596 5591 5584 5578 5570 5563 5557 5552 5550 5547 5541 5536 5531 5527 5524 5519 5511 5506 5502 5499 5493 5486 5479 5470 5461 5458 5454 5452 5449 5445 5442 5439
5613 5616 5613 5615 5616 5624 5632 5638 5642 5639 5633 5628 5622 5614 5615 5613 5620 5618 5614 5610 5604 5600 5593 5585 5580 5578 5571 5566 5560 5551 5547 5547 5544 5538 5534 5532 5528 5519 5513 5508 5504 5501 5497 5494 5490 5486 5480 5473 5470 5463 5458 5452 5446 5440
5616 5615 5617 5615 5622 5634 5639 5633 5631 5618 5615 5614 5620 5617 5617 5609 5608 5613 5614 5608 5602 5598 5591 5586 5582 5577 5576 5573 5568 5562 5551 5553 5544 5536 5529 5526 5524 5517 5512 5508 5505 5503 5498 5494 5491 5490 5485 5478 5477 5471 5466 5458 5452 5447
5623 5626 5627 5627 5627 5628 5635 5632 5624 5615 5613 5611 5615 5619 5613 5613 5598 5588 5609 5609 5601 5598 5594 5591 5587 5579 5574 5569 5564 5561 5554 5551 5544 5533 5524 5520 5520 5515 5512 5509 5506 5503 5498 5496 5496 5495 5487 5484 5480 5476 5470 5465 5461 5455